Location: Ocean City
(38.3360°N, 75.0850°W)
Time: 05:16:03
(UTC-05:00)

Envisat - Visible Passes

Search period start: 12 November 2019 00:00
Search period end: 22 November 2019 00:00
Orbit: 764 x 766 km, 98.1° (Epoch: 12 November)

Date Brightness Start Highest point End Pass type
(mag) Time Alt. Az. Time Alt. Az. Time Alt. Az.
12 Nov 6.5 05:27:26 10° ENE 05:28:37 11° E 05:29:48 10° ESE visible
12 Nov 3.3 18:15:56 10° S 18:20:59 69° WSW 18:26:04 10° NNW visible
13 Nov 3.1 17:39:22 10° SSE 17:44:16 52° ENE 17:49:13 10° N visible
13 Nov 5.8 19:20:24 10° SW 19:23:34 17° W 19:26:46 10° NW visible
14 Nov 5.9 05:50:40 10° NE 05:54:24 20° E 05:58:05 10° SE visible
14 Nov 4.4 18:41:51 10° SSW 18:46:33 38° W 18:51:16 10° NNW visible
15 Nov 3.0 18:04:38 10° SSE 18:09:43 88° W 18:14:49 10° NNW visible
16 Nov 3.4 17:28:21 10° SE 17:33:04 41° ENE 17:37:48 10° N visible
16 Nov 5.4 19:08:24 10° SW 19:12:12 21° W 19:16:02 10° NW visible
17 Nov 6.1 05:39:58 10° NE 05:43:01 16° E 05:46:02 10° SE visible
17 Nov 3.9 18:30:21 10° S 18:35:14 48° W 18:40:10 10° NNW visible
18 Nov 2.9 17:53:24 10° SSE 17:58:27 73° ENE 18:03:32 10° N visible
18 Nov 6.2 19:36:21 10° WSW 19:37:58 11° W 19:39:35 10° WNW visible
19 Nov 5.4 06:04:21 10° NE 06:08:44 28° E 06:13:04 10° SSE visible
19 Nov 3.7 17:17:24 10° SE 17:21:52 32° ENE 17:26:21 10° N visible
19 Nov 5.1 18:56:35 10° SSW 19:00:51 27° W 19:05:09 10° NW visible
20 Nov 6.3 05:29:41 10° ENE 05:31:37 12° E 05:33:34 10° ESE visible
20 Nov 3.5 18:18:55 10° S 18:23:56 63° W 18:28:59 10° NNW visible
21 Nov 3.0 17:42:15 10° SSE 17:47:13 57° ENE 17:52:11 10° N visible
21 Nov 5.9 19:23:42 10° SW 19:26:34 15° W 19:29:26 10° WNW visible
